Terminal Aerodrome Forecast
Issued by NWS

Home | Current Version | Previous Version | Text Only | Print | Product List | Glossary On
Versions: 1 2 3 4 5 6 7 8 9 10 11 12 13
000
FTUS42 KMLB 301120
TAFISM
TAF
KISM 301120Z 3012/3112 19002KT P6SM SCT250
     FM301400 19004KT P6SM FEW030
     FM302000 16005KT P6SM VCTS SCT050CB
     FM310100 13004KT P6SM SCT050 BKN100=

USA.gov is the U.S. government's official web portal to all federal, state and local government web resources and services.